McHenry, MD

11:23 PM EST on February 07, 2016 (GMT -0500)
Oakland

Weather History for K2G4 - January, 2014

Change the Weather History Date:

Sunday, January 5, 2014

  Actual Average (KMGW) Record (KMGW)
Temperature  
Mean Temperature 38 °F 31 °F  
Max Temperature 44 °F 39 °F 69 °F (1998)
Min Temperature 32 °F 24 °F -4 °F (1968)
Degree Days  
Heating Degree Days 27 34  
Month to date heating degree days 167  
Since 1 July heating degree days 2151  
Cooling Degree Days 0 0  
Month to date cooling degree days 0  
Year to date cooling degree days 0  
Moisture  
Dew Point 24 °F    
Average Humidity 65    
Maximum Humidity 100    
Minimum Humidity 10    
Precipitation  
Precipitation 0.00 in 0.09 in 1.44 in (2005)
Month to date precipitation 0.45  
Year to date precipitation 0.45  
Sea Level Pressure  
Sea Level Pressure 29.88 in    
Wind  
Wind Speed 11 mph (South)    
Max Wind Speed 23 mph    
Max Gust Speed 30 mph    
Visibility 9 miles    
Events Fog    
T = Trace of Precipitation, MM = Missing Value Source: NWS Daily Summary

Daily Weather History Graph

Daily Weather History Graph

Search for Another Location

Airport or City:

Trip Planner

Search our weather history database for the weather conditions in past years. The results will help you decide how hot, cold, wet, or windy it might be!

Date:

Astronomy

Jan. 05, 2014 Rise Set
Actual Time 7:38 AM EST 5:07 PM EST
Civil Twilight 7:08 AM EST 5:37 PM EST
Nautical Twilight 6:34 AM EST 6:11 PM EST
Astronomical Twilight 6:01 AM EST 6:43 PM EST
Moon 10:19 AM EST (1/5) 10:32 PM EST (1/5)
Length of Visible Light 10h 29m
Length of Day
9h 29m
Waxing Crescent, 24% of the Moon is Illuminated
Jan 5
Waxing Crescent
Jan 7
First Quarter
Jan 15
Full
Jan 24
Last Quarter
Jan 30
New

Hourly Weather History & Observations

Time (EST) Temp. Windchill Dew Point Humidity Pressure Visibility Wind Dir Wind Speed Gust Speed Precip Events Conditions
12:10 AM 33.8 °F 27.0 °F -18.4 °F 10% 30.09 in 10.0 mi SW 8.1 mph - N/A   Clear
12:30 AM 32.0 °F 24.8 °F -16.6 °F 12% 30.08 in 10.0 mi SW 8.1 mph - N/A   Clear
12:50 AM 33.8 °F 25.8 °F -18.4 °F 10% 30.08 in 10.0 mi WSW 10.4 mph - N/A   Clear
1:15 AM 33.8 °F 25.8 °F -14.8 °F 12% 30.08 in 10.0 mi WSW 10.4 mph 18.4 mph N/A   Clear
1:35 AM 33.8 °F 27.0 °F -13.0 °F 13% 30.08 in 10.0 mi SW 8.1 mph 16.1 mph N/A   Clear
1:55 AM 33.8 °F 25.8 °F -9.4 °F 15% 30.08 in 10.0 mi WSW 10.4 mph 16.1 mph N/A   Clear
2:15 AM 33.8 °F 26.4 °F -7.6 °F 17% 30.08 in 10.0 mi WSW 9.2 mph - N/A   Clear
2:35 AM 33.8 °F 26.4 °F -5.8 °F 18% 30.08 in 10.0 mi SW 9.2 mph 17.3 mph N/A   Clear
2:55 AM 32.0 °F 24.8 °F -4.0 °F 21% 30.09 in 10.0 mi SW 8.1 mph - N/A   Clear
3:15 AM 33.8 °F 26.4 °F -0.4 °F 23% 30.08 in 10.0 mi SW 9.2 mph - N/A   Clear
3:35 AM 33.8 °F 25.3 °F 1.4 °F 25% 30.08 in 10.0 mi SSW 11.5 mph 16.1 mph N/A   Clear
3:55 AM 32.0 °F 24.2 °F 3.2 °F 30% 30.08 in 10.0 mi SSW 9.2 mph - N/A   Scattered Clouds
4:15 AM 32.0 °F 24.2 °F 6.8 °F 35% 30.08 in 10.0 mi SSW 9.2 mph - N/A   Clear
4:35 AM 32.0 °F 24.2 °F 8.6 °F 38% 30.06 in 10.0 mi SSW 9.2 mph - N/A   Clear
4:55 AM 32.0 °F 24.2 °F 12.2 °F 44% 30.05 in 10.0 mi SSW 9.2 mph - N/A   Scattered Clouds
5:15 AM 33.8 °F 26.4 °F 12.2 °F 41% 30.06 in 10.0 mi SSW 9.2 mph - N/A   Scattered Clouds
5:35 AM 33.8 °F 26.4 °F 12.2 °F 41% 30.07 in 10.0 mi SSW 9.2 mph - N/A   Overcast
5:55 AM 35.6 °F 28.6 °F 14.0 °F 41% 30.06 in 10.0 mi South 9.2 mph - N/A   Overcast
6:15 AM 33.8 °F 27.0 °F 14.0 °F 44% 30.07 in 10.0 mi South 8.1 mph - N/A   Mostly Cloudy
6:35 AM 33.8 °F 27.0 °F 14.0 °F 44% 30.07 in 10.0 mi South 8.1 mph - N/A   Mostly Cloudy
6:55 AM 33.8 °F 27.0 °F 17.6 °F 52% 30.06 in 10.0 mi South 8.1 mph - N/A   Overcast
7:15 AM 33.8 °F 26.4 °F 19.4 °F 56% 30.07 in 10.0 mi South 9.2 mph - N/A   Overcast
7:35 AM 33.8 °F 27.0 °F 19.4 °F 56% 30.06 in 10.0 mi South 8.1 mph - N/A   Mostly Cloudy
7:55 AM 33.8 °F 27.7 °F 21.2 °F 60% 30.05 in 10.0 mi South 6.9 mph - N/A   Scattered Clouds
8:15 AM 35.6 °F 29.2 °F 23.0 °F 60% 30.06 in 10.0 mi South 8.1 mph - N/A   Scattered Clouds
8:35 AM 37.4 °F 32.1 °F 23.0 °F 56% 30.06 in 10.0 mi South 6.9 mph - N/A   Mostly Cloudy
8:55 AM 37.4 °F 32.8 °F 23.0 °F 56% 30.06 in 10.0 mi South 5.8 mph - N/A   Scattered Clouds
9:15 AM 37.4 °F 32.8 °F 26.6 °F 65% 30.06 in 10.0 mi South 5.8 mph - N/A   Scattered Clouds
9:35 AM 41.0 °F 35.8 °F 26.6 °F 57% 30.05 in 10.0 mi South 8.1 mph - N/A   Clear
9:55 AM 41.0 °F 36.4 °F 26.6 °F 57% 30.06 in 10.0 mi South 6.9 mph - N/A   Scattered Clouds
10:15 AM 42.8 °F 39.3 °F 28.4 °F 57% 30.04 in 10.0 mi South 5.8 mph - N/A   Mostly Cloudy
10:35 AM 44.6 °F 40.2 °F 30.2 °F 57% 30.01 in 10.0 mi SSW 8.1 mph - N/A   Scattered Clouds
10:55 AM 42.8 °F 38.6 °F 30.2 °F 61% 30.00 in 10.0 mi SSE 6.9 mph - N/A   Clear
11:15 AM 42.8 °F 37.5 °F 30.2 °F 61% 29.99 in 10.0 mi SSE 9.2 mph - N/A   Clear
11:35 AM 42.8 °F 36.6 °F 28.4 °F 57% 29.98 in 10.0 mi SE 11.5 mph - N/A   Scattered Clouds
11:55 AM 41.0 °F 35.2 °F 28.4 °F 61% 29.96 in 10.0 mi SSE 9.2 mph - N/A   Scattered Clouds
12:15 PM 42.8 °F 37.5 °F 30.2 °F 61% 29.94 in 10.0 mi SE 9.2 mph - N/A   Mostly Cloudy
12:35 PM 42.8 °F 38.0 °F 32.0 °F 66% 29.92 in 10.0 mi SE 8.1 mph - N/A   Scattered Clouds
12:55 PM 42.8 °F 37.5 °F 32.0 °F 66% 29.90 in 10.0 mi SE 9.2 mph - N/A   Clear
1:15 PM 42.8 °F 36.6 °F 32.0 °F 66% 29.88 in 10.0 mi SE 11.5 mph - N/A   Clear
1:35 PM 42.8 °F 36.6 °F 33.8 °F 70% 29.87 in 10.0 mi SE 11.5 mph - N/A   Clear
1:55 PM 42.8 °F 35.8 °F 33.8 °F 70% 29.86 in 10.0 mi SE 13.8 mph 17.3 mph N/A   Clear
2:15 PM 41.0 °F 33.9 °F 33.8 °F 76% 29.85 in 10.0 mi SE 12.7 mph - N/A   Clear
2:35 PM 41.0 °F 33.9 °F 33.8 °F 76% 29.85 in 10.0 mi SE 12.7 mph - N/A   Scattered Clouds
2:55 PM 41.0 °F 33.1 °F 35.6 °F 81% 29.83 in 10.0 mi SE 15.0 mph - N/A   Clear
3:15 PM 41.0 °F 33.1 °F 35.6 °F 81% 29.81 in 10.0 mi SE 15.0 mph 19.6 mph N/A   Scattered Clouds
3:35 PM 37.4 °F 28.9 °F 35.6 °F 93% 29.79 in 10.0 mi SE 13.8 mph 19.6 mph N/A   Scattered Clouds
3:55 PM 37.4 °F 27.2 °F 35.6 °F 93% 29.78 in 10.0 mi SE 19.6 mph - N/A   Clear
4:15 PM 39.2 °F 29.0 °F 39.2 °F 100% 29.77 in 10.0 mi SSE 21.9 mph 29.9 mph N/A   Scattered Clouds
4:35 PM 37.4 °F 27.5 °F 37.4 °F 100% 29.77 in 5.0 mi SE 18.4 mph 25.3 mph N/A   Overcast
4:55 PM 35.6 °F 25.5 °F 35.6 °F 100% 29.76 in 2.0 mi SE 17.3 mph 24.2 mph N/A   Overcast
5:15 PM 35.6 °F 24.0 °F 35.6 °F 100% 29.73 in 4.0 mi SE 23.0 mph 27.6 mph N/A   Overcast
5:35 PM 35.6 °F 24.5 °F 35.6 °F 100% 29.73 in 0.8 mi SSE 20.7 mph 29.9 mph N/A   Overcast
5:55 PM 35.6 °F 24.5 °F 35.6 °F 100% 29.72 in 0.8 mi SE 20.7 mph 26.5 mph N/A   Overcast
6:15 PM 35.6 °F 24.5 °F 35.6 °F 100% 29.71 in 0.5 mi SE 20.7 mph - N/A Fog Fog
6:35 PM 37.4 °F 27.2 °F 37.4 °F 100% 29.70 in 1.2 mi SSE 19.6 mph 24.2 mph N/A   Overcast
6:55 PM 37.4 °F 26.9 °F 37.4 °F 100% 29.68 in 2.5 mi SSE 20.7 mph 26.5 mph N/A   Overcast
7:15 PM 39.2 °F 29.6 °F 39.2 °F 100% 29.67 in 5.0 mi SSE 19.6 mph 26.5 mph N/A   Overcast
7:35 PM 41.0 °F 31.9 °F 41.0 °F 100% 29.65 in 10.0 mi SSE 19.6 mph 26.5 mph N/A   Mostly Cloudy
7:55 PM 42.8 °F 34.5 °F 42.8 °F 100% 29.65 in 10.0 mi SSE 18.4 mph 25.3 mph N/A   Scattered Clouds
8:15 PM 42.8 °F 34.5 °F 42.8 °F 100% 29.64 in 10.0 mi SSE 18.4 mph 26.5 mph N/A   Clear
8:35 PM 44.6 °F 37.2 °F 44.6 °F 100% 29.63 in 10.0 mi SSE 17.3 mph 24.2 mph N/A   Clear
8:55 PM 44.6 °F 37.2 °F 44.6 °F 100% 29.61 in 10.0 mi SSE 17.3 mph 24.2 mph N/A   Clear
9:15 PM 44.6 °F 38.1 °F 44.6 °F 100% 29.60 in 10.0 mi South 13.8 mph 20.7 mph N/A   Clear
9:35 PM 44.6 °F 38.1 °F 44.6 °F 100% 29.59 in 10.0 mi South 13.8 mph - N/A   Clear
9:55 PM 44.6 °F 38.1 °F 44.6 °F 100% 29.58 in 10.0 mi South 13.8 mph 19.6 mph N/A   Clear
10:15 PM 44.6 °F 38.1 °F 42.8 °F 93% 29.57 in 10.0 mi SSE 13.8 mph 18.4 mph N/A   Clear
10:35 PM 44.6 °F 38.4 °F 41.0 °F 87% 29.54 in 10.0 mi SSE 12.7 mph - N/A   Clear
10:55 PM 44.6 °F 38.4 °F 41.0 °F 87% 29.54 in 10.0 mi South 12.7 mph 16.1 mph N/A   Clear
11:15 PM 44.6 °F 38.8 °F 39.2 °F 81% 29.51 in 10.0 mi South 11.5 mph - N/A   Scattered Clouds
11:35 PM 44.6 °F 38.4 °F 37.4 °F 76% 29.51 in 10.0 mi South 12.7 mph - N/A   Mostly Cloudy
11:55 PM 44.6 °F 38.4 °F 37.4 °F 76% 29.49 in 10.0 mi South 12.7 mph 17.3 mph N/A   Mostly Cloudy